Temp
19 19 19 19 20 20 20 20 19 19 19 19 19 18 18 18 18 18 17 17 17 17 17 17 17 18 18 18 17 17 17 17 17 17 17 18 18 18 18 19 19 19
19 19 19 19 20 19 19 19 19 19 19 19 18 18 18 17 17 17 17 17 17 17 17 17 18 18 18 18 17 17 18 18 17 17 17 17 17 18 18 18 19 19
19 19 19 19 19 19 19 19 19 19 19 18 18 17 17 17 17 17 17 17 17 17 17 17 17 18 18 18 17 17 18 17 17 17 17 17 17 18 18 18 18 18
19 19 19 19 19 19 18 18 18 18 18 18 17 17 17 17 17 17 17 17 17 17 17 17 17 17 17 17 17 17 17 17 17 17 17 17 17 17 18 18 18 18
18 18 19 18 18 18 18 18 17 18 17 17 17 17 17 17 17 17 17 17 17 17 17 17 17 17 17 17 17 17 17 17 17 17 17 17 17 17 18 18 18 18
18 18 18 18 18 18 17 17 17 17 17 17 17 17 17 17 17 17 17 17 17 17 17 17 17 17 17 17 17 17 17 17 17 17 17 17 17 17 17 18 18 18
18 18 18 18 18 18 17 17 17 17 17 17 17 17 17 17 17 17 17 17 17 17 17 17 17 17 17 17 17 17 17 17 18 18 17 18 18 18 18 18 18 18
18 18 18 18 18 17 17 17 17 17 16 16 17 17 17 17 17 17 17 18 18 18 17 17 17 17 17 18 18 18 18 18 18 18 18 18 18 18 18 18 18 18
17 18 18 18 17 17 17 17 17 17 17 17 17 17 17 17 18 18 18 18 18 18 18 17 17 17 17 18 17 17 18 18 18 18 18 18 18 18 18 18 18 17
17 17 18 17 17 17 17 17 17 17 17 17 17 17 17 18 18 18 18 18 18 18 18 18 18 17 17 17 17 17 18 18 18 18 18 18 18 18 18 17 17 17
17 17 17 17 17 17 17 17 17 17 17 17 17 17 18 18 18 18 18 18 18 18 18 18 18 17 17 17 17 17 17 17 17 17 18 18 18 18 18 17 17 17
17 17 17 17 17 17 17 17 17 17 17 17 18 18 18 18 18 18 18 18 18 18 18 18 18 18 18 18 17 17 17 17 17 17 18 18 18 18 18 17 17 17
17 17 17 17 17 17 17 17 17 17 17 18 18 18 18 18 18 18 18 18 18 18 18 18 18 18 18 18 17 17 17 17 17 17 17 17 17 18 17 17 17 17
17 17 17 17 17 17 17 17 17 17 17 18 18 18 18 18 18 18 18 18 18 18 18 18 18 18 18 18 17 17 17 17 17 17 17 17 17 17 17 17 17 17
17 17 18 17 17 17 17 17 17 17 17 17 18 18 18 18 18 18 18 18 18 18 19 18 18 18 18 18 18 17 17 17 17 17 17 17 17 17 16 16 16 16
17 17 17 17 17 17 17 17 17 17 17 17 18 18 18 18 18 18 18 18 18 18 19 19 18 18 18 18 18 17 17 17 17 17 17 16 16 16 16 16 16 16
17 17 17 17 17 17 17 17 16 17 17 17 18 18 18 18 17 18 18 18 18 18 18 19 18 18 18 18 18 18 17 17 16 16 16 15 15 15 15 15 15 15
17 17 16 16 16 16 16 16 16 16 16 17 17 17 17 17 17 17 17 18 18 18 18 18 18 18 18 18 18 18 17 17 16 15 15 15 15 15 15 15 15 15
17 17 16 16 16 16 16 16 16 16 16 16 16 16 16 16 16 16 17 17 17 17 17 17 16 17 18 18 18 17 17 16 16 15 15 15 15 15 15 15 15 15
17 17 16 16 16 16 16 15 15 15 16 16 16 15 16 16 16 16 16 16 16 16 16 15 15 16 16 17 17 17 17 16 16 15 15 15 15 15 15 15 14 14
17 17 17 17 17 16 16 15 15 15 15 15 15 15 15 15 15 15 16 16 16 15 15 15 15 15 16 16 16 16 16 16 15 15 14 14 14 15 15 15 14 14
16 16 16 16 17 17 17 16 16 16 16 16 15 15 15 15 15 15 15 16 15 15 15 14 14 15 16 15 15 16 16 15 15 14 14 14 14 14 14 15 14 14
15 15 15 15 16 16 16 16 16 16 16 16 16 16 15 15 15 15 15 15 15 15 15 15 14 14 15 15 15 15 15 15 15 14 14 13 14 13 13 14 14 14
14 14 14 15 15 15 15 15 15 16 16 16 16 16 16 16 15 15 15 15 15 15 15 15 14 14 14 14 14 14 14 14 14 14 13 13 13 13 13 13 13 13
13 14 14 14 14 14 14 14 15 15 15 16 16 16 16 16 16 16 15 15 15 15 15 14 14 14 14 14 14 14 14 14 14 13 12 13 13 13 12 12 13 13
13 13 14 14 14 14 14 14 14 14 14 15 15 15 16 16 16 16 16 15 15 15 15 15 14 14 14 14 14 14 14 14 13 12 12 12 13 12 11 11 12 12
Height
796 799 802 803 805 806 808 809 811 813 815 816 817 818 819 821 822 822 823 824 825 826 827 828 829 829 830 831 831 832 832 833 834 835 836 837 838 839 839 840 840 840
797 800 802 803 804 806 807 809 811 813 814 816 817 818 819 820 821 822 823 824 825 826 827 828 829 830 831 831 832 833 833 834 835 836 837 838 839 839 840 840 840 841
797 799 801 803 804 806 808 809 811 813 814 815 816 817 819 820 821 822 823 824 825 826 827 828 829 830 831 832 833 833 834 834 835 836 837 838 839 840 840 841 841 842
797 799 801 803 804 806 808 810 811 812 813 815 816 817 818 820 821 822 822 824 825 826 827 828 829 830 831 832 833 833 834 835 836 837 838 838 839 840 841 842 842 842
797 799 801 803 805 807 808 809 811 812 813 815 816 817 818 819 821 821 822 824 825 826 827 828 829 830 831 832 833 833 834 835 836 837 838 839 840 841 841 842 843 843
798 800 802 804 805 807 808 809 811 812 813 815 816 817 818 819 820 821 822 823 825 826 827 828 829 830 831 832 833 834 835 836 837 838 839 840 841 841 842 843 843 844
799 801 803 804 806 807 808 809 811 812 813 815 816 817 818 819 820 821 822 823 825 826 827 829 830 831 832 832 833 834 835 836 837 838 839 840 841 842 843 844 844 845
800 802 803 805 806 807 808 809 811 812 813 815 816 817 818 819 820 821 822 823 825 826 828 829 830 831 832 833 833 834 835 836 837 838 839 840 841 842 843 844 845 846
800 802 804 805 806 807 809 810 811 812 813 814 815 817 818 819 820 821 822 824 825 826 828 829 831 831 832 833 834 835 835 836 837 838 840 841 842 843 844 845 846 846
801 803 805 806 806 808 809 810 811 812 813 814 815 816 817 818 820 821 823 824 825 826 828 829 831 832 833 834 835 836 836 837 838 839 840 841 842 843 844 845 846 847
802 804 805 806 807 808 809 811 812 812 813 814 815 816 817 818 820 822 823 824 825 826 828 829 830 832 833 834 835 836 837 838 839 840 841 842 843 844 845 846 847 847
802 804 805 806 807 809 810 811 812 813 813 814 815 816 818 819 820 822 823 824 825 826 827 828 830 832 833 834 836 837 838 839 840 841 842 843 843 844 845 846 847 848
802 804 805 806 808 809 810 811 812 813 814 814 815 816 818 819 820 822 823 824 825 826 827 828 829 831 833 834 835 836 838 839 840 841 842 843 843 844 845 846 847 848
802 804 805 806 808 809 811 812 812 813 814 815 816 816 818 819 821 822 823 824 825 826 827 828 829 830 831 833 835 836 838 839 840 841 842 842 843 844 844 845 845 846
802 804 805 807 808 809 811 811 812 813 814 815 816 817 818 819 820 822 823 824 824 825 826 827 828 829 830 832 834 836 837 839 840 841 841 842 843 843 843 843 844 845
802 804 805 807 808 809 811 811 812 813 814 815 816 817 818 819 820 822 822 823 824 824 825 825 826 828 830 831 833 835 837 838 839 840 840 841 841 841 842 843 843 844
803 804 806 807 808 809 810 811 812 813 814 815 816 817 818 819 820 821 821 822 823 823 824 825 826 828 829 831 833 834 836 837 838 839 839 839 840 840 841 842 842 842
805 806 807 808 809 810 811 811 812 813 814 815 816 817 818 818 819 820 820 821 822 822 824 825 826 828 830 832 833 833 835 835 836 837 837 838 839 839 840 840 840 841
806 807 808 809 809 810 810 811 811 812 813 814 814 815 817 817 818 819 819 820 821 822 824 825 827 829 830 831 831 832 833 833 834 835 836 836 836 837 838 838 838 839
808 808 809 810 810 810 811 812 813 813 814 814 814 815 816 817 817 817 818 819 820 821 822 822 826 829 830 830 830 831 831 832 833 834 834 835 835 835 836 836 836 837
809 810 811 812 812 813 814 815 815 815 816 816 816 816 816 816 816 816 816 817 818 820 820 820 823 826 827 827 829 829 829 830 831 831 832 833 834 834 834 834 834 834
812 812 813 813 814 814 814 815 815 815 815 815 815 815 815 814 814 814 814 815 816 817 817 818 820 822 823 824 825 827 827 828 828 829 830 831 832 833 833 832 832 832
814 814 814 815 815 815 815 814 814 814 814 814 814 814 813 813 813 812 812 812 813 813 814 815 816 818 820 821 822 824 824 824 825 826 827 828 830 831 831 831 830 830
815 815 815 815 816 816 816 814 813 813 812 812 812 812 812 812 812 811 811 810 810 810 811 812 814 815 817 819 819 820 821 821 822 823 823 825 826 827 828 829 828 827
816 816 816 816 817 817 816 815 814 813 812 811 811 811 810 810 810 809 809 808 808 808 809 810 811 813 814 815 815 816 817 818 819 820 821 822 823 823 825 825 825 825
817 817 817 817 817 816 816 815 814 813 812 811 811 810 809 809 808 808 807 807 806 807 807 808 809 809 809 810 810 811 813 814 815 816 818 819 820 820 822 823 823 823
Wind_Speed
17 16 15 14 13 12 10 10 9 7 7 8 9 9 8 7 6 7 8 7 7 8 8 9 9 9 10 12 13 14 14 14 15 14 14 13 12 11 11 11 11 12
16 15 14 13 14 14 12 11 10 9 9 9 10 10 9 7 7 7 7 7 8 8 8 8 8 9 10 11 13 13 13 14 14 14 14 13 13 13 12 11 11 11
16 15 14 13 15 15 13 12 11 10 11 11 11 10 10 8 7 7 7 8 8 8 8 8 8 9 10 11 12 12 12 13 13 14 15 14 14 14 12 11 12 12
17 16 14 14 15 16 14 13 13 12 12 12 11 10 10 9 8 8 8 8 9 9 8 8 8 9 9 10 11 11 11 12 13 14 14 14 14 13 12 13 13 14
17 15 14 15 16 16 15 14 14 13 12 11 10 10 10 10 9 9 8 8 9 9 8 8 8 9 9 9 10 11 12 12 12 13 14 14 14 13 13 14 15 15
15 14 14 16 16 15 15 14 14 14 12 11 10 9 9 10 9 9 8 8 8 8 8 8 8 8 8 9 10 10 11 12 12 13 14 14 14 13 14 14 14 13
14 14 14 15 15 15 15 14 15 14 13 11 10 9 9 9 9 8 8 8 8 7 7 7 7 7 8 9 9 10 11 12 12 12 13 13 14 13 13 13 12 11
13 13 14 15 16 16 15 15 15 14 13 13 11 10 10 9 8 8 8 8 8 8 7 7 7 7 7 8 9 10 11 11 12 13 13 14 13 12 12 12 11 10
13 13 14 16 17 16 15 15 15 14 13 13 11 9 10 10 9 8 8 8 8 8 7 7 7 7 7 7 9 10 10 9 12 14 13 12 12 11 11 10 10 9
12 12 13 15 16 16 15 14 13 13 12 11 11 10 10 10 10 9 8 8 9 8 8 8 8 7 7 8 9 9 8 9 11 13 12 11 11 12 11 10 9 8
12 12 13 15 14 14 14 12 12 12 11 11 11 11 10 10 10 10 9 9 9 9 9 9 8 8 7 8 9 8 8 9 10 11 11 10 10 11 11 10 9 8
13 13 13 13 13 13 13 12 11 11 12 12 12 11 11 10 10 11 10 10 10 9 10 10 9 9 9 9 10 9 9 9 10 10 10 9 9 10 9 9 7 6
13 13 12 11 10 11 12 10 9 9 10 11 11 11 12 11 10 11 11 11 11 10 10 11 11 11 10 11 10 10 11 10 10 10 9 8 8 8 8 8 6 5
13 12 11 11 10 10 11 10 8 8 9 10 10 11 12 12 11 11 11 11 12 12 12 12 13 13 13 13 12 11 11 10 10 11 9 9 9 8 8 9 8 7
12 10 9 10 10 9 9 9 8 8 9 10 10 10 11 12 12 11 12 12 12 13 13 14 15 15 15 15 15 14 13 12 12 12 11 11 10 7 9 11 10 9
9 8 8 8 8 7 7 7 7 8 9 10 10 10 10 11 11 12 13 13 14 14 14 16 16 17 17 17 17 17 16 15 14 13 13 14 12 9 10 11 11 10
7 7 7 6 5 5 5 6 6 7 8 7 8 8 9 10 11 12 13 13 14 15 15 16 17 17 17 17 18 18 17 17 16 14 14 16 15 11 10 12 12 11
7 6 5 5 6 6 6 6 7 8 9 9 9 9 9 9 10 12 13 13 14 15 16 15 16 17 18 17 19 20 19 19 18 17 15 16 17 12 10 12 12 11
6 6 4 2 3 3 3 4 5 7 9 10 10 10 11 11 11 12 14 15 17 17 14 9 7 12 16 19 21 22 22 21 20 18 18 19 20 16 13 13 13 12
8 6 5 4 2 1 1 3 6 7 9 11 11 12 14 14 13 14 16 17 16 14 12 9 8 11 15 18 21 23 24 23 21 17 17 19 20 19 17 15 15 14
13 10 7 4 2 1 2 5 7 8 9 10 11 12 14 13 13 15 18 19 17 14 14 13 14 17 19 19 21 24 26 25 22 17 14 15 17 17 17 18 18 17
17 16 14 12 9 5 3 4 6 7 7 8 9 10 11 12 12 14 17 18 19 19 18 15 14 19 24 25 24 26 27 26 23 18 14 14 15 16 18 19 19 19
16 15 15 15 14 13 12 10 7 5 5 6 8 9 10 12 13 14 16 18 20 22 22 20 18 19 24 28 28 28 29 29 26 23 20 18 17 18 19 18 18 18
14 14 14 13 14 14 15 15 14 11 9 8 8 9 11 14 15 16 17 18 20 22 24 24 23 20 22 26 27 28 30 31 28 27 25 23 22 22 20 20 20 20
13 13 13 12 12 13 13 14 14 14 14 13 12 12 12 14 16 18 19 20 21 23 25 26 26 26 25 26 27 28 29 31 30 27 25 24 24 23 21 21 22 21
13 12 13 13 13 14 14 14 14 15 16 16 16 16 15 16 16 16 17 19 20 21 24 26 27 29 29 29 30 31 31 32 31 27 24 23 23 23 22 22 23 20
Wind_Direction
155 151 143 138 141 142 134 129 134 133 128 128 126 121 117 113 106 98 95 97 98 98 100 104 102 97 101 103 102 106 107 106 110 111 111 110 108 107 97 91 93 91
153 149 145 140 140 141 136 133 136 134 130 131 130 127 122 117 112 106 105 107 109 111 111 111 110 106 105 106 107 110 110 110 113 114 114 110 105 103 96 91 95 97
150 147 143 141 140 141 139 137 139 138 135 135 135 134 128 123 121 117 114 116 115 116 115 109 107 109 108 109 110 110 109 110 112 115 113 109 107 106 101 100 103 101
145 144 143 145 145 144 144 145 145 141 136 136 135 133 132 130 129 122 116 118 118 118 118 113 112 116 116 116 117 115 113 112 112 115 113 111 112 111 104 101 99 98
144 144 147 149 148 149 153 154 151 143 137 140 141 137 138 138 135 128 123 122 122 122 122 119 118 120 121 122 124 121 119 118 119 121 120 117 115 111 105 102 101 101
145 147 148 150 153 155 157 156 154 148 144 149 149 145 144 143 140 139 135 130 128 127 127 126 124 125 128 129 129 128 127 128 129 127 126 123 119 115 110 109 107 105
146 149 150 153 156 157 156 154 154 153 154 155 155 154 152 149 151 151 144 138 137 137 136 136 135 133 133 133 133 136 135 135 135 132 129 127 125 123 118 115 111 104
148 152 154 155 156 156 157 156 155 158 161 159 159 163 161 158 162 162 155 151 148 145 143 142 142 140 139 140 140 139 138 139 140 134 130 131 128 123 119 118 116 113
150 156 157 156 157 157 158 159 158 160 164 162 160 165 167 168 171 167 164 162 154 149 150 149 149 148 146 145 142 141 143 142 140 137 134 136 132 124 123 123 119 118
154 160 162 161 161 161 161 160 161 163 165 166 166 169 175 178 175 171 171 170 160 156 158 156 156 156 154 152 150 151 150 138 136 139 140 141 140 135 134 132 127 124
166 170 170 167 166 167 165 161 164 167 169 173 175 176 181 180 173 173 178 175 169 167 166 164 166 165 162 162 160 161 157 145 143 147 148 153 151 144 143 141 140 139
174 176 173 170 170 171 169 164 165 168 172 179 180 177 180 180 176 180 186 183 178 178 175 172 174 176 175 174 172 170 167 160 158 160 161 160 148 140 144 144 143 146
174 174 172 169 170 174 175 173 169 169 177 185 186 183 181 183 186 188 190 190 188 189 188 182 181 185 186 182 178 178 177 173 169 168 167 159 151 149 151 146 144 150
168 170 170 168 174 179 179 179 178 180 187 192 194 191 185 187 194 196 196 197 198 198 199 196 191 192 193 190 187 185 183 180 175 173 172 165 163 164 159 160 166 161
158 161 164 166 173 180 181 185 188 190 193 200 205 202 195 192 195 202 203 205 210 208 205 205 201 199 200 196 193 191 188 186 183 181 181 175 171 171 168 172 179 172
146 149 156 164 172 181 190 193 197 200 202 208 211 206 203 202 205 211 211 210 217 218 214 211 206 205 207 202 196 194 190 189 190 188 186 181 177 181 183 184 190 194
132 136 144 158 171 184 195 193 196 206 209 212 216 214 212 213 215 222 223 219 220 222 222 219 212 209 211 205 200 198 193 191 192 189 183 174 166 168 179 183 188 197
122 122 130 151 166 179 193 195 198 207 209 210 220 228 227 223 222 227 231 232 232 231 231 231 222 215 215 211 205 201 196 195 195 193 192 183 175 178 187 191 200 211
100 96 76 99 148 168 195 218 224 225 224 221 225 231 233 231 230 230 231 233 235 234 239 251 231 207 211 216 212 205 201 199 197 198 203 200 197 204 207 208 217 222
66 70 44 30 17 23 342 277 265 252 246 244 240 238 236 233 232 233 232 232 233 234 240 253 234 204 207 214 213 209 205 201 197 201 210 213 215 223 223 218 220 221
37 38 36 25 341 272 215 239 244 238 239 241 235 230 232 232 232 236 237 234 234 236 238 238 228 214 213 217 216 213 210 204 202 205 216 225 229 230 225 222 223 221
22 21 19 10 356 341 289 255 244 236 240 243 239 236 237 235 228 233 242 243 238 238 239 238 230 218 217 222 224 220 217 214 215 218 223 230 231 224 219 223 224 217
10 9 6 0 353 346 343 341 328 292 271 260 252 247 247 244 235 232 240 243 241 241 242 241 237 227 222 225 227 227 225 223 225 231 235 235 234 228 224 224 219 208
359 357 351 344 338 334 336 340 339 332 320 303 283 264 254 256 256 251 248 248 248 247 245 241 237 231 227 227 229 230 230 230 234 241 244 243 238 232 226 217 203 193
345 341 334 327 321 320 321 322 321 319 315 311 306 293 274 263 260 255 251 252 253 251 247 243 237 231 227 226 227 230 233 238 241 241 242 242 233 221 212 203 193 186
327 322 319 317 312 310 309 306 304 302 300 298 297 294 286 276 269 262 253 249 247 244 244 246 244 238 233 230 232 236 238 241 239 235 236 237 224 205 193 189 186 180